Weather Roundup
Issued by NWS Springfield, MO

Home | Current Version | Previous Version | Text Only | Print | Product List | Glossary On
Versions: 1 2 3 4 5 6 7 8 9 10 11 12 13 14 15 16 17 18 19 20 21 22 23 24 25 26 27 28 29 30 31 32 33 34 35 36 37 38 39 40 41 42 43 44 45 46 47 48 49 50
000
NZUS99 KSGF 171007
HRRSGF

HOURLY WEATHER
NATIONAL WEATHER SERVICE SPRINGFIELD MO
500 AM CDT THU AUG 17 2017

......SGF CWA......

CITY           SKY/WX    TMP DP  RH WIND       PRES   REMARKS
SPRINGFIELD    CLOUDY    67  67 100 S6        29.93R
JOPLIN         CLOUDY    69  69 100 SW5       29.92S
WEST PLAINS    LGT RAIN  69  67  93 W6        29.97R
ROLLA          CLOUDY    65  65 100 SW7       29.93R
OSAGE BEACH    CLOUDY    68  67  96 SW7       29.92R
BRANSON        LGT RAIN  68  66  94 S6        29.94F

......SURROUNDING SGF CWA......

CITY           SKY/WX    TMP DP  RH WIND       PRES   REMARKS
CHANUTE        FOG       69  68  96 SW6       29.91S VSB 1/4
PARSONS        CLOUDY    67  66  97 CALM      29.92S
COFFEYVILLE    CLOUDY    68  68 100 S3        29.91S
EMPORIA        CLOUDY    66  64  93 NW7       29.93R
GROVE OK       CLOUDY    70  70 100 CALM      29.93R
ROGERS AR      LGT RAIN  68  67  96 VRB3      29.94F
SILOAM SPRINGS CLOUDY    68  64  88 NW7       29.94R
HARRISON AR    RAIN      69  68  96 S7        29.95S
NEAR YELLVILLE CLOUDY    70  63  78 CALM      29.93S

......KANSAS AND MISSOURI......

CITY           SKY/WX    TMP DP  RH WIND       PRES   REMARKS
KANSAS CTY INT CLOUDY    66  64  93 W6        29.88R
DOWNTOWN KC    CLOUDY    70  68  93 W3        29.87R
COLUMBIA       CLOUDY    68  67  96 SW9       29.88R
SEDALIA        PTCLDY    69  69 100 SW12      29.89R
ST JOSEPH      FOG       63  62  97 W5        29.87S VSB 1
ST LOUIS       CLOUDY    69  68  96 SW5       29.87R
SPIRIT OF STL  CLOUDY    69  68  96 W8        29.86R
KIRKSVILLE     CLOUDY    69  67  93 SW7       29.83R
WICHITA        CLEAR     67  64  90 NW10      29.95F
TOPEKA         CLOUDY    67  67 100 W6        29.91R
OLATHE         CLOUDY    67  67 100 W3        29.90R

......TENNESSEE......

CITY           SKY/WX    TMP DP  RH WIND       PRES   REMARKS
MEMPHIS        CLOUDY    77  74  90 SW13      29.96S
NASHVILLE      CLEAR     77  73  87 SW6       30.00R

......ARKANSAS.......

CITY           SKY/WX    TMP DP  RH WIND       PRES   REMARKS
FAYETTEVILLE   CLOUDY    68  68 100 SE3       29.93F
FT SMITH       LGT RAIN  73  73 100 S3        29.89F
LITTLE ROCK    CLOUDY    77  77 100 S9        29.93F

......OKLAHOMA.......

CITY           SKY/WX    TMP DP  RH WIND       PRES   REMARKS
TULSA          MOCLDY    72  70  93 W7        29.91R
PONCA CITY     CLOUDY    68  65  90 CALM      29.94R
MCALESTER      LGT RAIN  70  68  93 VRB5      29.95R
OKLAHOMA CITY  CLOUDY    69  68  96 W3        29.95S

......IOWA............

CITY           SKY/WX    TMP DP  RH WIND       PRES   REMARKS
DES MOINES     CLOUDY    67  63  87 W12       29.76S

......ILLINOIS........

CITY           SKY/WX    TMP DP  RH WIND       PRES   REMARKS
QUINCY         MOCLDY    69  67  93 SW8       29.82R




USA.gov is the U.S. government's official web portal to all federal, state and local government web resources and services.